| time (UTC) | temp F | wind direction | speed MPH | gust MPH | rain 1hr in | rain 24hr in | rain mn in | humidity % | barometer mb |
| 20260508113639 | 33 | 283 | 5.0 | 7.0 | 0.00 | 0.00 | 0.00 | 75 | 1007.2 |
| 20260508112651 | 33 | 283 | 5.0 | 7.0 | 0.00 | 0.00 | 0.00 | 74 | 1007.2 |
| 20260508111626 | 33 | 284 | 5.0 | 7.0 | 0.00 | 0.00 | 0.00 | 75 | 1007.1 |
| 20260508105501 | 34 | 0 | 4.0 | 6.0 | 0.00 | 0.00 | 0.00 | 74 | 1006.9 |
| 20260508103330 | 34 | 0 | 4.0 | 6.0 | 0.00 | 0.00 | 0.00 | 72 | 1006.8 |
| 20260508102348 | 34 | 0 | 4.0 | 5.0 | 0.00 | 0.00 | 0.00 | 72 | 1006.8 |
| 20260508101336 | 34 | 0 | 4.0 | 6.0 | 0.00 | 0.00 | 0.00 | 72 | 1006.8 |
| 20260508100353 | 34 | 0 | 5.0 | 8.0 | 0.00 | 0.00 | 0.00 | 71 | 1006.8 |
| 20260508095343 | 35 | 0 | 5.0 | 8.0 | 0.00 | 0.00 | 0.00 | 69 | 1006.8 |
| 20260508093212 | 36 | 292 | 5.0 | 7.0 | 0.00 | 0.00 | 0.00 | 66 | 1006.6 |
| 20260508092158 | 36 | 287 | 5.0 | 7.0 | 0.00 | 0.00 | 0.00 | 65 | 1006.7 |
| 20260508090030 | 36 | 287 | 4.0 | 6.0 | 0.00 | 0.00 | 0.00 | 64 | 1006.6 |
| 20260508085042 | 37 | 0 | 4.0 | 5.0 | 0.00 | 0.00 | 0.00 | 63 | 1006.6 |
| 20260508084059 | 38 | 0 | 4.0 | 5.0 | 0.00 | 0.00 | 0.00 | 64 | 1006.7 |
| 20260508083039 | 38 | 296 | 3.0 | 5.0 | 0.00 | 0.00 | 0.00 | 63 | 1006.8 |
| 20260508082023 | 39 | 293 | 4.0 | 5.0 | 0.00 | 0.00 | 0.00 | 60 | 1006.8 |
| 20260508075804 | 41 | 0 | 3.0 | 6.0 | 0.00 | 0.00 | 0.00 | 56 | 1006.8 |
| 20260508074824 | 42 | 0 | 3.0 | 4.0 | 0.00 | 0.00 | 0.00 | 54 | 1006.7 |
| 20260508073836 | 43 | 0 | 3.0 | 4.0 | 0.00 | 0.00 | 0.00 | 51 | 1006.6 |
| 20260508072824 | 43 | 251 | 3.0 | 4.0 | 0.00 | 0.00 | 0.00 | 49 | 1006.6 |
| 20260508071810 | 44 | 239 | 3.0 | 4.0 | 0.00 | 0.00 | 0.00 | 49 | 1006.5 |
| 20260508070733 | 44 | 271 | 1.0 | 4.0 | 0.00 | 0.00 | 0.00 | 51 | 1006.5 |
| 20260508064502 | 45 | 306 | 3.0 | 5.0 | 0.00 | 0.00 | 0.00 | 47 | 1006.7 |
| 20260508063438 | 45 | 0 | 3.0 | 5.0 | 0.00 | 0.00 | 0.00 | 47 | 1006.9 |
| 20260508062433 | 46 | 320 | 2.0 | 4.0 | 0.00 | 0.00 | 0.00 | 44 | 1006.8 |
| 20260508061436 | 46 | 0 | 1.0 | 5.0 | 0.00 | 0.00 | 0.00 | 45 | 1006.8 |
| 20260508060458 | 46 | 0 | 1.0 | 5.0 | 0.00 | 0.00 | 0.00 | 44 | 1006.6 |
| 20260508055508 | 46 | 0 | 0.0 | 5.0 | 0.00 | 0.00 | 0.00 | 45 | 1006.7 |
| 20260508054438 | 46 | 0 | 4.0 | 6.0 | 0.00 | 0.00 | 0.00 | 45 | 1006.6 |
| 20260508053421 | 46 | 217 | 4.0 | 6.0 | 0.00 | 0.00 | 0.00 | 43 | 1006.7 |
| 20260508051314 | 45 | 192 | 2.0 | 8.0 | 0.00 | 0.00 | 0.00 | 45 | 1006.7 |
| 20260508050333 | 45 | 0 | 3.0 | 8.0 | 0.00 | 0.00 | 0.00 | 45 | 1006.6 |
| 20260508045312 | 45 | 0 | 4.0 | 5.0 | 0.00 | 0.00 | 0.00 | 45 | 1006.6 |
| 20260508044314 | 46 | 0 | 2.0 | 6.0 | 0.00 | 0.00 | 0.00 | 44 | 1006.5 |
| 20260508043257 | 47 | 0 | 5.0 | 6.0 | 0.00 | 0.00 | 0.00 | 43 | 1006.3 |
| 20260508041151 | 47 | 0 | 3.0 | 6.0 | 0.00 | 0.00 | 0.00 | 41 | 1006.5 |
| 20260508040202 | 48 | 172 | 3.0 | 5.0 | 0.00 | 0.00 | 0.00 | 39 | 1006.5 |
| 20260508035153 | 49 | 172 | 3.0 | 5.0 | 0.00 | 0.00 | 0.00 | 39 | 1006.4 |
| 20260508034203 | 50 | 0 | 3.0 | 5.0 | 0.00 | 0.00 | 0.00 | 36 | 1006.5 |
| 20260508032006 | 51 | 150 | 2.0 | 4.0 | 0.00 | 0.00 | 0.00 | 34 | 1006.5 |
| 20260508030934 | 52 | 150 | 3.0 | 4.0 | 0.00 | 0.00 | 0.00 | 32 | 1006.4 |
| 20260508025921 | 53 | 124 | 2.0 | 3.0 | 0.00 | 0.00 | 0.00 | 32 | 1006.4 |
| 20260508024849 | 54 | 116 | 2.0 | 4.0 | 0.00 | 0.00 | 0.00 | 30 | 1006.5 |
| 20260508023832 | 54 | 105 | 2.0 | 4.0 | 0.00 | 0.00 | 0.00 | 30 | 1006.4 |
| 20260508022848 | 55 | 65 | 1.0 | 3.0 | 0.00 | 0.00 | 0.00 | 27 | 1006.4 |
| 20260508021844 | 56 | 49 | 2.0 | 2.0 | 0.00 | 0.00 | 0.00 | 28 | 1006.4 |
| 20260508020812 | 57 | 9 | 1.0 | 2.0 | 0.00 | 0.00 | 0.00 | 27 | 1006.4 |
| 20260508014646 | 57 | 348 | 0.0 | 0.0 | 0.00 | 0.00 | 0.00 | 28 | 1006.7 |
| 20260508013702 | 58 | 351 | 0.0 | 2.0 | 0.00 | 0.00 | 0.00 | 29 | 1006.7 |
| 20260508012642 | 58 | 347 | 1.0 | 4.0 | 0.00 | 0.00 | 0.00 | 25 | 1006.8 |
| 20260508011638 | 58 | 0 | 2.0 | 5.0 | 0.00 | 0.00 | 0.00 | 24 | 1006.9 |
| 20260508010632 | 58 | 0 | 3.0 | 5.0 | 0.00 | 0.00 | 0.00 | 24 | 1006.9 |
| 20260508005626 | 59 | 0 | 3.0 | 8.0 | 0.00 | 0.00 | 0.00 | 23 | 1006.9 |
| 20260508004615 | 59 | 9 | 5.0 | 9.0 | 0.00 | 0.00 | 0.00 | 22 | 1006.9 |
| 20260508003628 | 60 | 331 | 6.0 | 9.0 | 0.00 | 0.00 | 0.00 | 21 | 1007.0 |
| 20260508001503 | 60 | 338 | 6.0 | 11.0 | 0.00 | 0.00 | 0.00 | 21 | 1007.1 |
| 20260508000450 | 60 | 5 | 5.0 | 11.0 | 0.00 | 0.00 | 0.00 | 21 | 1007.2 |
| 20260507235425 | 59 | 344 | 5.0 | 9.0 | 0.00 | 0.00 | 0.00 | 21 | 1007.4 |
| 20260507233245 | 59 | 327 | 7.0 | 14.0 | 0.00 | 0.00 | 0.00 | 21 | 1007.6 |
| 20260507232259 | 59 | 323 | 5.0 | 11.0 | 0.00 | 0.00 | 0.00 | 20 | 1007.7 |
| 20260507230114 | 58 | 0 | 5.0 | 10.0 | 0.00 | 0.00 | 0.00 | 20 | 1007.8 |
| 20260507225107 | 58 | 0 | 6.0 | 10.0 | 0.00 | 0.00 | 0.00 | 19 | 1007.8 |
| 20260507224034 | 58 | 0 | 6.0 | 11.0 | 0.00 | 0.00 | 0.00 | 19 | 1007.9 |
| 20260507223019 | 58 | 289 | 7.0 | 14.0 | 0.00 | 0.00 | 0.00 | 20 | 1007.9 |
| 20260507221943 | 58 | 301 | 8.0 | 14.0 | 0.00 | 0.00 | 0.00 | 19 | 1008.0 |
| 20260507220914 | 58 | 293 | 8.0 | 14.0 | 0.00 | 0.00 | 0.00 | 19 | 1008.1 |
| 20260507215903 | 58 | 288 | 6.0 | 14.0 | 0.00 | 0.00 | 0.00 | 19 | 1008.2 |
| 20260507214848 | 59 | 287 | 6.0 | 12.0 | 0.00 | 0.00 | 0.00 | 19 | 1008.4 |
| 20260507213830 | 58 | 0 | 6.0 | 10.0 | 0.00 | 0.00 | 0.00 | 20 | 1008.4 |
| 20260507211717 | 58 | 0 | 5.0 | 9.0 | 0.00 | 0.00 | 0.00 | 22 | 1008.7 |
| 20260507210651 | 59 | 286 | 1.0 | 5.0 | 0.00 | 0.00 | 0.00 | 20 | 1008.8 |
| 20260507205638 | 59 | 311 | 5.0 | 13.0 | 0.00 | 0.00 | 0.00 | 20 | 1008.9 |
| 20260507204619 | 58 | 277 | 7.0 | 16.0 | 0.00 | 0.00 | 0.00 | 20 | 1009.0 |
| 20260507203637 | 58 | 275 | 6.0 | 16.0 | 0.00 | 0.00 | 0.00 | 20 | 1008.9 |
| 20260507201515 | 58 | 17 | 6.0 | 11.0 | 0.00 | 0.00 | 0.00 | 20 | 1009.1 |
| 20260507200524 | 58 | 259 | 5.0 | 12.0 | 0.00 | 0.00 | 0.00 | 21 | 1009.2 |
| 20260507195536 | 57 | 295 | 6.0 | 12.0 | 0.00 | 0.00 | 0.00 | 20 | 1009.2 |
| 20260507194545 | 57 | 269 | 6.0 | 20.0 | 0.00 | 0.00 | 0.00 | 22 | 1009.3 |
| 20260507193522 | 57 | 311 | 6.0 | 20.0 | 0.00 | 0.00 | 0.00 | 22 | 1009.5 |
| 20260507192456 | 56 | 323 | 5.0 | 12.0 | 0.00 | 0.00 | 0.00 | 21 | 1009.5 |
| 20260507191455 | 56 | 318 | 7.0 | 14.0 | 0.00 | 0.00 | 0.00 | 22 | 1009.5 |
| 20260507185253 | 56 | 340 | 4.0 | 10.0 | 0.00 | 0.00 | 0.00 | 22 | 1009.7 |
| 20260507183047 | 55 | 279 | 5.0 | 16.0 | 0.00 | 0.00 | 0.00 | 23 | 1009.9 |
| 20260507182046 | 55 | 262 | 8.0 | 16.0 | 0.00 | 0.00 | 0.00 | 25 | 1010.0 |
| 20260507181031 | 56 | 279 | 4.0 | 10.0 | 0.00 | 0.00 | 0.00 | 25 | 1010.0 |
| 20260507180034 | 55 | 333 | 4.0 | 13.0 | 0.00 | 0.00 | 0.00 | 24 | 1010.2 |
| 20260507174956 | 55 | 0 | 7.0 | 13.0 | 0.00 | 0.00 | 0.00 | 24 | 1010.3 |
| 20260507173952 | 54 | 355 | 5.0 | 13.0 | 0.00 | 0.00 | 0.00 | 26 | 1010.2 |
| 20260507172940 | 54 | 287 | 6.0 | 15.0 | 0.00 | 0.00 | 0.00 | 26 | 1010.4 |
| 20260507171914 | 53 | 281 | 7.0 | 15.0 | 0.00 | 0.00 | 0.00 | 26 | 1010.4 |
| 20260507163359 | 52 | 313 | 5.0 | 13.0 | 0.00 | 0.00 | 0.00 | 28 | 1010.9 |
| 20260507162353 | 52 | 327 | 7.0 | 13.0 | 0.00 | 0.00 | 0.00 | 29 | 1010.9 |
| 20260507160302 | 51 | 323 | 6.0 | 13.0 | 0.00 | 0.00 | 0.00 | 28 | 1011.1 |
| 20260507155306 | 51 | 313 | 6.0 | 12.0 | 0.00 | 0.00 | 0.00 | 30 | 1011.1 |
| 20260507154255 | 51 | 325 | 5.0 | 12.0 | 0.00 | 0.00 | 0.00 | 29 | 1011.2 |
| 20260507145907 | 49 | 288 | 5.0 | 10.0 | 0.00 | 0.00 | 0.00 | 36 | 1011.2 |
| 20260507144856 | 48 | 310 | 5.0 | 10.0 | 0.00 | 0.00 | 0.00 | 39 | 1011.2 |
| 20260507143813 | 47 | 310 | 5.0 | 10.0 | 0.00 | 0.00 | 0.00 | 42 | 1011.2 |
| 20260507142737 | 45 | 0 | 6.0 | 9.0 | 0.00 | 0.00 | 0.00 | 46 | 1011.2 |
| 20260507141731 | 44 | 293 | 5.0 | 9.0 | 0.00 | 0.00 | 0.00 | 49 | 1011.4 |
| 20260507140725 | 43 | 273 | 3.0 | 7.0 | 0.00 | 0.00 | 0.00 | 53 | 1011.3 |
| 20260507135655 | 41 | 289 | 4.0 | 7.0 | 0.00 | 0.00 | 0.00 | 55 | 1011.3 |
| 20260507134649 | 40 | 283 | 3.0 | 5.0 | 0.00 | 0.00 | 0.00 | 59 | 1011.4 |
| 20260507133621 | 38 | 257 | 2.0 | 4.0 | 0.00 | 0.00 | 0.00 | 63 | 1011.4 |
| 20260507132620 | 36 | 231 | 2.0 | 4.0 | 0.00 | 0.00 | 0.00 | 70 | 1011.4 |
| 20260507131623 | 34 | 252 | 1.0 | 3.0 | 0.00 | 0.00 | 0.00 | 76 | 1011.4 |
| 20260507130629 | 32 | 252 | 2.0 | 3.0 | 0.00 | 0.00 | 0.00 | 80 | 1011.3 |
| 20260507125639 | 30 | 0 | 0.0 | 0.0 | 0.00 | 0.00 | 0.00 | 84 | 1011.4 |
| 20260507124605 | 29 | 0 | 0.0 | 0.0 | 0.00 | 0.00 | 0.00 | 84 | 1011.3 |
| 20260507123558 | 27 | 320 | 0.0 | 0.0 | 0.00 | 0.00 | 0.00 | 85 | 1011.2 |
| 20260507122524 | 26 | 320 | 0.0 | 0.0 | 0.00 | 0.00 | 0.00 | 85 | 1011.3 |
| 20260507120408 | 25 | 321 | 0.0 | 0.0 | 0.00 | 0.00 | 0.00 | 85 | 1011.2 |